This demonstration page uses our WeatherBlox Daily Observations layout. Learn more.

Left ArrowRight Arrow

Hourly Observations for February 13, 2020

Temp ( °F °C ) Dew Point ( °F °C ) Humidity (%) Winds ( mph kmh ) Pressure ( in mb ) Visibility ( mi km ) Precip ( " mm )
12:46 am 00:46 Cloudy 50 10 43 6.1 77 77 Calm 29.91 1013 10 16 0.00 0.00
12:59 am 00:59 Cloudy 51 10.6 44 6.7 77 77 S 3 6 29.90 1013 10 16 0.00 0.00
1:59 am 01:59 Cloudy 53 11.7 49 9.4 86 86 S 9 15 29.85 1011 7 11 0.00 0.00
2:59 am 02:59 Cloudy with Mist and Fog 56 13.3 53 11.7 90 90 SSW 9 15 29.83 1010 6 10 0.00 0.00
3:59 am 03:59 Cloudy 58 14.4 56 13.3 93 93 SSW 8 13 29.81 1009 7 11 0.00 0.00
4:47 am 04:47 Partly Cloudy 60 15.6 57 13.9 90 90 SSW 10 17 29.80 1009 8 13 0.00 0.00
4:59 am 04:59 Partly Cloudy 60 15.6 57 13.9 90 90 SW 8 13 29.80 1009 8 13 0.00 0.00
5:26 am 05:26 Mostly Cloudy 60 15.6 57 13.9 90 90 WSW 9 15 29.82 1010 8 13 0.00 0.00
5:39 am 05:39 Cloudy 60 15.6 57 13.9 90 90 W 8 13 29.83 1010 8 13 0.00 0.00
5:59 am 05:59 Cloudy with Mist and Fog 60 15.6 57 13.9 90 90 SW 9 15 29.82 1010 5 8 0.00 0.00
6:34 am 06:34 Mostly Clear 61 16.1 58 14.4 90 90 SSW 14 22 29.80 1009 8 13 0.00 0.00
6:59 am 06:59 Partly Cloudy 61 16.1 58 14.4 90 90 SSW 9 15 29.80 1009 9 14 0.00 0.00
7:09 am 07:09 Mostly Cloudy 61 16.1 58 14.4 90 90 SW 8 13 29.81 1009 9 14 0.00 0.00
7:59 am 07:59 Cloudy 63 17.2 60 15.6 90 90 SSW 7 11 29.79 1009 8 13 0.00 0.00
8:59 am 08:59 Cloudy 65 18.3 61 16.1 87 87 SSW 14 22 29.78 1009 7 11 0.00 0.00
9:17 am 09:17 Cloudy with Mist and Fog 65 18.3 61 16.1 87 87 W 20 31 29.80 1009 5 8 0.00 0.00
9:34 am 09:34 Cloudy with Mist and Fog 56 13.3 54 12.2 93 93 NW 18 30 29.81 1009 4 6 0.00 0.00
9:59 am 09:59 Cloudy with Mist and Fog 56 13.3 54 12.2 93 93 WNW 8 13 29.80 1009 4 6 0.00 0.00
10:05 am 10:05 Cloudy with Light Rain 56 13.3 55 12.8 97 97 W 6 9 29.81 1009 2 3 0.01 0.25
10:28 am 10:28 Cloudy with Light Rain 56 13.3 54 12.2 93 93 WSW 6 9 29.82 1010 4 6 0.03 0.76
10:59 am 10:59 Mostly Cloudy 60 15.6 57 13.9 90 90 SSW 5 7 29.78 1009 7 11 0.03 0.76
11:16 am 11:16 Cloudy with Light Rain 59 15 57 13.9 93 93 SW 9 15 29.83 1010 2 3 0.03 0.76
11:23 am 11:23 Cloudy with Rain 60 15.6 58 14.4 93 93 W 10 17 29.82 1010 2 2 0.05 1.27
11:26 am 11:26 Cloudy with Light Rain 61 16.1 58 14.4 90 90 W 9 15 29.82 1010 3 4 0.05 1.27
11:33 am 11:33 Cloudy with Light Rain 61 16.1 59 15 93 93 W 10 17 29.82 1010 5 8 0.05 1.27
11:40 am 11:40 Cloudy with Light Rain 61 16.1 59 15 93 93 W 9 15 29.82 1010 6 10 0.05 1.27
11:56 am 11:56 Cloudy with Light Rain 61 16 59 15 94 94 W 9 15 29.82 1010 3 4 0.08 2.03
11:59 am 11:59 Cloudy with Light Rain 61 16.1 59 15 93 93 WSW 9 15 29.82 1010 3 5 0.08 2.03
12:19 pm 12:19 Cloudy with Light Rain 61 16.1 59 15 93 93 WSW 9 15 29.84 1010 2 3 0.02 0.51
12:59 pm 12:59 Cloudy with Light Rain 62 16.7 60 15.6 93 93 SW 8 13 29.80 1009 4 6 0.06 1.52
1:48 pm 13:48 Cloudy 61 16.1 60 15.6 97 97 S 9 15 29.76 1008 10 16 0.00 0.00
1:59 pm 13:59 Cloudy with Light Rain 62 16.7 60 15.6 93 93 S 8 13 29.74 1007 6 10 0.01 0.25
2:59 pm 14:59 Cloudy 63 17.2 59 15 87 87 S 10 17 29.71 1006 10 16 0.00 0.00
3:59 pm 15:59 Cloudy with Light Rain 64 17.8 58 14.4 81 81 SW 18 30 29.72 1007 8 13 0.00 0.00
4:59 pm 16:59 Mostly Cloudy with Light Rain 63 17.2 58 14.4 84 84 SSW 14 22 29.75 1008 7 11 0.03 0.76
5:59 pm 17:59 Cloudy with Light Rain 62 16.7 58 14.4 86 86 SW 12 19 29.81 1010 10 16 0.04 1.02
6:59 pm 18:59 Cloudy 62 16.7 59 15 90 90 SW 13 20 29.84 1010 10 16 0.00 0.00
7:59 pm 19:59 Cloudy 62 16.7 58 14.4 86 86 W 13 20 29.87 1012 10 16 0.07 1.78
8:59 pm 20:59 Cloudy 60 15.6 56 13.3 86 86 W 8 13 29.90 1013 10 16 0.00 0.00
9:59 pm 21:59 Cloudy 54 12.2 49 9.4 83 83 NNE 9 15 29.96 1015 10 16 0.00 0.00
10:59 pm 22:59 Cloudy 51 10.6 43 6.1 74 74 N 14 22 30.00 1016 10 16 0.00 0.00
11:59 pm 23:59 Cloudy 50 10 38 3.3 63 63 N 12 19 30.05 1018 10 16 0.00 0.00

Powered by AerisWeather